Regional Weather Roundup
Issued by NWS

Home | Current Version | Previous Version | Graphics & Text | Print | Product List | Glossary Off
Versions: 1 2 3 4 5 6 7 8 9 10 11 12 13 14 15 16 17 18 19 20 21 22 23 24 25 26 27 28 29 30 31 32 33 34 35 36 37 38 39 40 41 42 43 44 45 46 47 48 49 50

000
ASUS43 KOAX 240210
RWRNE

WEATHER ROUNDUP FOR NEBRASKA
NATIONAL WEATHER SERVICE OMAHA NE
900 PM CDT SUN APR 23 2017

NOTES: SATELLITE DATA IS BEING USED TO AUGMENT CLOUD COVER ABOVE
       12000 FEET.
       "FAIR" INDICATES FEW OR NO CLOUDS BELOW 12,000 FEET WITH NO
       SIGNIFICANT WEATHER AND/OR OBSTRUCTIONS TO VISIBILITY.

  * THESE STATIONS DO NOT REPORT WEATHER SUCH AS RAIN...SNOW OR FOG.

NEZ001>004-019>022-054>056-240300-
NEBRASKA PANHANDLE

CITY           SKY/WX    TMP DP  RH WIND       PRES   REMARKS
SCOTTSBLUFF    CLEAR     64  37  36 SE9       29.64F
ALLIANCE       CLOUDY    61  39  44 S13       29.65F
CHADRON        CLOUDY    62  36  37 S13       29.60S
KIMBALL        CLOUDY    60  43  52 S9        29.70S
SIDNEY         CLOUDY    60  39  45 S15       29.69F
$$

NEZ057>060-069>072-079>082-240300-
SOUTHWEST NEBRASKA

CITY           SKY/WX    TMP DP  RH WIND       PRES   REMARKS
NORTH PLATTE   CLOUDY    63  36  36 S12       29.75S
IMPERIAL       CLOUDY    60  38  43 S14       29.72F
LEXINGTON      CLOUDY    62  27  27 S17G23    29.80S
MCCOOK         CLOUDY    61  33  35 S13       29.77F
OGALLALA       CLOUDY    64  37  36 S10       29.71F
$$

NEZ005>010-023>029-035>040-094-240300-
NORTH CENTRAL NEBRASKA

CITY           SKY/WX    TMP DP  RH WIND       PRES   REMARKS
VALENTINE      PTCLDY    66  37  34 S12       29.68F
AINSWORTH      PTCLDY    60  38  44 S9        29.71F
BROKEN BOW     PTCLDY    61  27  27 S14       29.78S
O`NEILL        MOCLDY    61  27  27 S13       29.78S
ORD            CLOUDY    61  27  27 S14       29.79S
THEDFORD       CLOUDY    64  36  35 S15       29.73F
$$

NEZ041-046>049-061>064-073>077-083>087-240300-
SOUTH CENTRAL NEBRASKA

CITY           SKY/WX    TMP DP  RH WIND       PRES   REMARKS
GRAND ISLAND   CLOUDY    60  31  33 S14       29.85S
AURORA         CLOUDY    61  29  30 S13G20    29.86S
HASTINGS       CLOUDY    60  30  32 S10G21    29.86F
HEBRON         PTCLDY    59  33  37 S12       29.89F
HOLDREGE       CLOUDY    60  31  33 S15G22    29.83S
KEARNEY *      CLOUDY    61  28  29 S17G24    29.84S
YORK           CLOUDY    59  30  33 S13       29.88S
$$

NEZ011>018-030>034-042>045-240300-
NORTHEAST NEBRASKA

CITY           SKY/WX    TMP DP  RH WIND       PRES   REMARKS
NORFOLK        CLEAR     61  26  26 S16G28    29.82S
ALBION         CLEAR     61  29  30 S12       29.83S
BLAIR          PTCLDY    62  31  31 S10       29.90F
FREMONT        CLEAR     62  28  27 S9        29.89S
TEKAMAH        CLEAR     56  38  50 S13       29.87F
WAYNE          CLOUDY    58  32  36 S13       29.83R
$$

NEZ050>053-065>068-078-088>093-240300-
SOUTHEAST NEBRASKA

CITY           SKY/WX    TMP DP  RH WIND       PRES   REMARKS
LINCOLN        CLOUDY    57  31  37 S10       29.91F
OMAHA EPPLEY   PTCLDY    66  27  23 S13       29.91S
BEATRICE       CLOUDY    59  32  35 S9        29.92F
FALLS CITY     CLOUDY    61  33  35 S8        29.95S
NEBRASKA CITY  MOCLDY    58  24  27 S8        29.94S
PLATTSMOUTH    CLOUDY    59  24  25 S8        29.92F
$$

NEZ044-045-051>053-067-240300-
OMAHA AREA

CITY           SKY/WX    TMP DP  RH WIND       PRES   REMARKS
OMAHA EPPLEY   PTCLDY    66  27  23 S13       29.91S
BLAIR          PTCLDY    62  31  31 S10       29.90F
FREMONT        CLEAR     62  28  27 S9        29.89S
MILLARD        CLEAR     64  33  30 SE6       29.91F
OFFUTT AFB     CLEAR     60  30  32 S8        29.91F
PLATTSMOUTH    CLOUDY    59  24  25 S8        29.92F
WAHOO          FAIR      56  29  34 S12       29.89F
$$




USA.gov is the U.S. government's official web portal to all federal, state and local government web resources and services.